Reflectivity
4 -20 -20 -20 -20 -20 -20 -20 -20 -20 -20 -20 -20 -20 -20 -20 -20 -20 -20 -20 -20 -20
10 -20 -20 -20 -20 -20 -20 -20 -20 -20 -20 -20 -20 -20 -20 -20 -20 -20 -20 -20 -20 -20
10 -20 -20 -20 -20 -20 -20 -20 -20 -20 -20 -20 -20 -20 -20 -20 -20 -20 -20 -20 -20 -20
-19 -20 -17 -18 -20 -19 -20 -20 -20 -20 -20 -20 -20 -20 -20 -20 -20 -20 -20 -20 -20 -20
-17 -20 -20 -20 18 -18 -18 -20 -20 -20 -20 -20 -20 -20 -20 -20 -20 -20 -20 -20 -20 -20
16 -17 -12 14 -20 2 -20 -20 -20 -20 -20 -20 -20 -20 -20 -20 -20 -20 -20 -20 -20 -20
16 -20 0 -20 -20 -11 -7 -20 -20 -20 -20 -20 -20 -20 -20 -20 -20 -20 -20 -20 -20 -20
-18 -20 -20 -20 14 -20 -8 -20 -20 -20 -20 -20 -15 5 -20 -20 -20 -20 -20 -20 -20 -20
12 2 -20 15 -20 -2 -20 -20 -20 -20 -12 -2 4 -1 -20 -20 -20 -20 -20 -20 -20 -20
7 10 12 -17 -10 8 -20 -20 -17 4 15 15 -9 -15 -20 -20 -20 -20 -20 -20 -20 -20
-10 -2 6 -20 7 -18 -20 -20 9 19 25 -15 -20 -20 -20 -20 -20 -20 -20 -20 -20 -20
13 7 -20 -20 -19 -20 -19 14 29 19 -1 -20 -20 -20 -20 -20 -20 -20 -20 -20 -20 -20
13 -9 -20 -20 -20 0 17 35 14 -3 -20 -20 -20 -20 -20 -20 -20 -20 -20 -20 -20 -20
13 -1 -20 -13 14 23 32 16 12 -4 -20 -20 -20 -20 -20 -20 -20 -20 -20 -20 -20 -20
Wind_Speed
13 10 10 12 10 8 7 6 6 6 6 6 5 4 3 1 1 2 3 4 3 3
12 13 12 10 10 6 7 8 7 7 6 6 5 4 3 1 2 2 2 3 4 3
10 10 11 10 9 9 7 9 8 7 6 6 5 3 3 2 2 4 3 3 4 4
9 11 12 10 10 10 7 9 8 7 7 6 5 3 3 2 2 2 3 4 4 5
12 14 12 12 10 10 8 8 7 7 6 6 5 4 4 2 5 4 4 4 5 5
14 14 14 12 13 9 10 8 8 7 6 6 5 4 5 2 3 4 5 5 6 6
15 16 13 13 12 10 9 9 8 7 6 5 5 5 5 6 5 4 5 5 6 7
14 13 14 14 11 9 9 9 9 8 6 5 5 6 7 5 4 5 5 5 5 6
15 15 14 12 11 10 9 8 8 7 8 6 8 11 10 5 3 4 4 4 4 5
16 16 14 13 13 11 10 9 8 8 6 11 10 10 8 4 3 4 2 3 5 4
16 15 14 13 13 11 11 10 9 7 7 9 8 10 7 1 5 3 3 4 5 5
16 16 14 13 13 11 10 9 7 8 7 6 7 11 7 3 2 3 4 4 5 5
16 15 14 13 11 9 9 9 6 8 7 8 10 11 7 0 2 2 2 4 5 6
15 13 13 11 10 9 9 9 7 7 7 7 11 8 9 5 1 2 2 2 3 3
Wind_Direction
176 161 151 155 157 158 154 147 140 130 123 104 97 87 74 54 341 318 20 348 316 321
150 152 153 158 145 141 127 123 120 121 125 119 112 97 83 51 332 337 345 351 320 290
149 140 146 138 129 119 122 121 126 128 121 119 119 121 79 39 341 21 3 309 319 311
152 141 133 126 122 122 123 129 136 134 134 131 127 109 91 47 315 29 350 308 300 315
151 139 137 129 136 124 137 127 125 131 136 134 129 119 90 54 31 2 324 331 324 314
150 137 140 141 132 144 133 129 135 127 137 137 122 122 95 83 50 18 340 335 350 338
152 147 143 140 136 147 136 136 130 138 132 126 142 123 87 60 33 355 354 360 7 351
146 141 134 131 141 136 135 139 137 129 130 129 108 86 81 51 357 345 342 17 357 347
140 136 133 134 138 132 133 133 126 140 139 137 99 99 87 50 353 317 19 359 332 302
144 141 139 144 142 144 142 132 137 131 145 106 112 117 109 83 315 282 226 245 266 288
146 141 147 150 143 146 138 146 140 137 101 122 126 125 112 211 261 294 348 352 350 329
148 149 151 150 148 144 148 132 126 120 124 152 131 128 140 278 341 16 350 339 331 327
146 146 151 147 140 140 125 123 135 145 154 116 129 141 139 201 64 352 8 330 313 327
136 145 147 139 131 125 128 143 150 140 144 152 148 159 152 150 66 69 299 286 329 325